owner,sensor,date,latitude,longitude,vertical_datum,wind_speed,wind_to_direction,wind_speed_of_gust,qcFlag 
DISL,ioos:station:DISL:PPTA:1,2017-08-01T00:00:00Z,30.2791,-87.5561,0.0,1.1,168.2,-999.0,'1111122,1111122,1111122' 
DISL,ioos:station:DISL:PPTA:1,2017-08-01T00:30:00Z,30.2791,-87.5561,0.0,0.76,141.1,-999.0,'1111122,1111122,1111122' 
DISL,ioos:station:DISL:PPTA:1,2017-08-01T01:00:00Z,30.2791,-87.5561,0.0,0.58,130.6,-999.0,'1111122,1111122,1111122' 
DISL,ioos:station:DISL:PPTA:1,2017-08-01T01:30:00Z,30.2791,-87.5561,0.0,1.33,88.3,-999.0,'1111122,1111122,1111122' 
DISL,ioos:station:DISL:PPTA:1,2017-08-01T02:00:00Z,30.2791,-87.5561,0.0,1.05,54.61,-999.0,'1111122,1111122,1111122' 
DISL,ioos:station:DISL:PPTA:1,2017-08-01T02:30:00Z,30.2791,-87.5561,0.0,1.46,331.6,-999.0,'1111122,1111122,1111122' 
DISL,ioos:station:DISL:PPTA:1,2017-08-01T03:00:00Z,30.2791,-87.5561,0.0,1.76,337.7,-999.0,'1111122,1111122,1111122' 
DISL,ioos:station:DISL:PPTA:1,2017-08-01T03:30:00Z,30.2791,-87.5561,0.0,2.57,56.14,-999.0,'1111122,1111122,1111122' 
DISL,ioos:station:DISL:PPTA:1,2017-08-01T04:00:00Z,30.2791,-87.5561,0.0,2.44,24.39,-999.0,'1111122,1111122,1111122' 
DISL,ioos:station:DISL:PPTA:1,2017-08-01T04:30:00Z,30.2791,-87.5561,0.0,2.42,33.4,-999.0,'1111122,1111122,1111122' 
DISL,ioos:station:DISL:PPTA:1,2017-08-01T05:00:00Z,30.2791,-87.5561,0.0,2.53,32.54,-999.0,'1111122,1111122,1111122' 
DISL,ioos:station:DISL:PPTA:1,2017-08-01T05:30:00Z,30.2791,-87.5561,0.0,2.85,41.22,-999.0,'1111122,1111122,1111122' 
DISL,ioos:station:DISL:PPTA:1,2017-08-01T06:00:00Z,30.2791,-87.5561,0.0,4.25,78.98,-999.0,'1111122,1111122,1111122' 
DISL,ioos:station:DISL:PPTA:1,2017-08-01T06:30:00Z,30.2791,-87.5561,0.0,3.11,83.1,-999.0,'1111122,1111122,1111122' 
DISL,ioos:station:DISL:PPTA:1,2017-08-01T07:00:00Z,30.2791,-87.5561,0.0,2.46,41.62,-999.0,'1111122,1111122,1111122' 
DISL,ioos:station:DISL:PPTA:1,2017-08-01T07:30:00Z,30.2791,-87.5561,0.0,3.11,31.3,-999.0,'1111122,1111122,1111122' 
DISL,ioos:station:DISL:PPTA:1,2017-08-01T08:00:00Z,30.2791,-87.5561,0.0,2.42,37.21,-999.0,'1111122,1111122,1111122' 
DISL,ioos:station:DISL:PPTA:1,2017-08-01T08:30:00Z,30.2791,-87.5561,0.0,3.4,49.28,-999.0,'1111122,1111122,1111122' 
DISL,ioos:station:DISL:PPTA:1,2017-08-01T09:00:00Z,30.2791,-87.5561,0.0,3.84,52.45,-999.0,'1111122,1111122,1111122' 
DISL,ioos:station:DISL:PPTA:1,2017-08-01T09:30:00Z,30.2791,-87.5561,0.0,2.91,50.96,-999.0,'1111122,1111122,1111122' 
DISL,ioos:station:DISL:PPTA:1,2017-08-01T10:00:00Z,30.2791,-87.5561,0.0,2.66,47.99,-999.0,'1111122,1111122,1111122' 
DISL,ioos:station:DISL:PPTA:1,2017-08-01T10:30:00Z,30.2791,-87.5561,0.0,2.32,30.93,-999.0,'1111122,1111122,1111122' 
DISL,ioos:station:DISL:PPTA:1,2017-08-01T11:00:00Z,30.2791,-87.5561,0.0,2.28,30.66,-999.0,'1111122,1111122,1111122' 
DISL,ioos:station:DISL:PPTA:1,2017-08-01T11:30:00Z,30.2791,-87.5561,0.0,2.28,41.14,-999.0,'1111122,1111122,1111122' 
DISL,ioos:station:DISL:PPTA:1,2017-08-01T12:00:00Z,30.2791,-87.5561,0.0,2.56,42.82,-999.0,'1111122,1111122,1111122' 
DISL,ioos:station:DISL:PPTA:1,2017-08-01T12:30:00Z,30.2791,-87.5561,0.0,2.57,44.12,-999.0,'1111122,1111122,1111122' 
DISL,ioos:station:DISL:PPTA:1,2017-08-01T13:00:00Z,30.2791,-87.5561,0.0,3.11,55.77,-999.0,'1111122,1111122,1111122' 
DISL,ioos:station:DISL:PPTA:1,2017-08-01T13:30:00Z,30.2791,-87.5561,0.0,3.68,63.79,-999.0,'1111122,1111122,1111122' 
DISL,ioos:station:DISL:PPTA:1,2017-08-01T14:00:00Z,30.2791,-87.5561,0.0,3.68,60.24,-999.0,'1111122,1111122,1111122' 
DISL,ioos:station:DISL:PPTA:1,2017-08-01T14:30:00Z,30.2791,-87.5561,0.0,4.69,80.1,-999.0,'1111122,1111122,1111122' 
DISL,ioos:station:DISL:PPTA:1,2017-08-01T15:00:00Z,30.2791,-87.5561,0.0,5.48,82.4,-999.0,'1111122,1111122,1111122' 
DISL,ioos:station:DISL:PPTA:1,2017-08-01T15:30:00Z,30.2791,-87.5561,0.0,4.8,91.0,-999.0,'1111122,1111122,1111122' 
DISL,ioos:station:DISL:PPTA:1,2017-08-01T16:00:00Z,30.2791,-87.5561,0.0,4.61,96.5,-999.0,'1111122,1111122,1111122' 
DISL,ioos:station:DISL:PPTA:1,2017-08-01T16:30:00Z,30.2791,-87.5561,0.0,4.25,89.4,-999.0,'1111122,1111122,1111122' 
DISL,ioos:station:DISL:PPTA:1,2017-08-01T17:00:00Z,30.2791,-87.5561,0.0,4.15,98.2,-999.0,'1111122,1111122,1111122' 
DISL,ioos:station:DISL:PPTA:1,2017-08-01T17:30:00Z,30.2791,-87.5561,0.0,3.81,105.8,-999.0,'1111122,1111122,1111122' 
DISL,ioos:station:DISL:PPTA:1,2017-08-01T18:00:00Z,30.2791,-87.5561,0.0,3.94,110.7,-999.0,'1111122,1111122,1111122' 
DISL,ioos:station:DISL:PPTA:1,2017-08-01T18:30:00Z,30.2791,-87.5561,0.0,4.08,116.2,-999.0,'1111122,1111122,1111122' 
DISL,ioos:station:DISL:PPTA:1,2017-08-01T19:00:00Z,30.2791,-87.5561,0.0,3.83,116.9,-999.0,'1111122,1111122,1111122' 
DISL,ioos:station:DISL:PPTA:1,2017-08-01T19:30:00Z,30.2791,-87.5561,0.0,3.53,119.4,-999.0,'1111122,1111122,1111122' 
DISL,ioos:station:DISL:PPTA:1,2017-08-01T20:00:00Z,30.2791,-87.5561,0.0,3.52,125.8,-999.0,'1111122,1111122,1111122' 
DISL,ioos:station:DISL:PPTA:1,2017-08-01T20:30:00Z,30.2791,-87.5561,0.0,4.06,127.8,-999.0,'1111122,1111122,1111122' 
DISL,ioos:station:DISL:PPTA:1,2017-08-01T21:00:00Z,30.2791,-87.5561,0.0,3.22,129.0,-999.0,'1111122,1111122,1111122' 
DISL,ioos:station:DISL:PPTA:1,2017-08-01T21:30:00Z,30.2791,-87.5561,0.0,3.34,142.8,-999.0,'1111122,1111122,1111122' 
DISL,ioos:station:DISL:PPTA:1,2017-08-01T22:00:00Z,30.2791,-87.5561,0.0,2.92,145.1,-999.0,'1111122,1111122,1111122' 
DISL,ioos:station:DISL:PPTA:1,2017-08-01T22:30:00Z,30.2791,-87.5561,0.0,3.3,142.4,-999.0,'1111122,1111122,1111122' 
DISL,ioos:station:DISL:PPTA:1,2017-08-01T23:00:00Z,30.2791,-87.5561,0.0,3.07,142.1,-999.0,'1111122,1111122,1111122' 
DISL,ioos:station:DISL:PPTA:1,2017-08-01T23:30:00Z,30.2791,-87.5561,0.0,3.57,150.5,-999.0,'1111122,1111122,1111122' 
DISL,ioos:station:DISL:PPTA:1,2017-08-02T00:00:00Z,30.2791,-87.5561,0.0,1.74,165.4,-999.0,'1111122,1111122,1111122' 
DISL,ioos:station:DISL:PPTA:1,2017-08-02T00:30:00Z,30.2791,-87.5561,0.0,1.29,171.4,-999.0,'1111122,1111122,1111122' 
DISL,ioos:station:DISL:PPTA:1,2017-08-02T01:00:00Z,30.2791,-87.5561,0.0,1.18,164.9,-999.0,'1111122,1111122,1111122' 
DISL,ioos:station:DISL:PPTA:1,2017-08-02T01:30:00Z,30.2791,-87.5561,0.0,1.45,160.5,-999.0,'1111122,1111122,1111122' 
DISL,ioos:station:DISL:PPTA:1,2017-08-02T02:00:00Z,30.2791,-87.5561,0.0,1.79,143.2,-999.0,'1111122,1111122,1111122' 
DISL,ioos:station:DISL:PPTA:1,2017-08-02T02:30:00Z,30.2791,-87.5561,0.0,1.35,141.4,-999.0,'1111122,1111122,1111122' 
DISL,ioos:station:DISL:PPTA:1,2017-08-02T03:00:00Z,30.2791,-87.5561,0.0,0.71,128.3,-999.0,'1111122,1111122,1111122' 
DISL,ioos:station:DISL:PPTA:1,2017-08-02T03:30:00Z,30.2791,-87.5561,0.0,0.73,106.2,-999.0,'1111122,1111122,1111122' 
DISL,ioos:station:DISL:PPTA:1,2017-08-02T04:00:00Z,30.2791,-87.5561,0.0,0.8,323.0,-999.0,'1111122,1111122,1111122' 
DISL,ioos:station:DISL:PPTA:1,2017-08-02T04:30:00Z,30.2791,-87.5561,0.0,0.86,354.1,-999.0,'1111122,1111122,1111122' 
DISL,ioos:station:DISL:PPTA:1,2017-08-02T05:00:00Z,30.2791,-87.5561,0.0,0.85,335.8,-999.0,'1111122,1111122,1111122' 
DISL,ioos:station:DISL:PPTA:1,2017-08-02T05:30:00Z,30.2791,-87.5561,0.0,0.91,347.7,-999.0,'1111122,1111122,1111122' 
DISL,ioos:station:DISL:PPTA:1,2017-08-02T06:00:00Z,30.2791,-87.5561,0.0,1.16,343.4,-999.0,'1111122,1111122,1111122' 
DISL,ioos:station:DISL:PPTA:1,2017-08-02T06:30:00Z,30.2791,-87.5561,0.0,1.61,38.11,-999.0,'1111122,1111122,1111122' 
DISL,ioos:station:DISL:PPTA:1,2017-08-02T07:00:00Z,30.2791,-87.5561,0.0,1.79,28.86,-999.0,'1111122,1111122,1111122' 
DISL,ioos:station:DISL:PPTA:1,2017-08-02T07:30:00Z,30.2791,-87.5561,0.0,1.25,329.5,-999.0,'1111122,1111122,1111122' 
DISL,ioos:station:DISL:PPTA:1,2017-08-02T08:00:00Z,30.2791,-87.5561,0.0,1.03,11.07,-999.0,'1111122,1111122,1111122' 
DISL,ioos:station:DISL:PPTA:1,2017-08-02T08:30:00Z,30.2791,-87.5561,0.0,1.63,15.28,-999.0,'1111122,1111122,1111122' 
DISL,ioos:station:DISL:PPTA:1,2017-08-02T09:00:00Z,30.2791,-87.5561,0.0,1.71,19.57,-999.0,'1111122,1111122,1111122' 
DISL,ioos:station:DISL:PPTA:1,2017-08-02T09:30:00Z,30.2791,-87.5561,0.0,1.93,15.3,-999.0,'1111122,1111122,1111122' 
DISL,ioos:station:DISL:PPTA:1,2017-08-02T10:00:00Z,30.2791,-87.5561,0.0,2.4,19.24,-999.0,'1111122,1111122,1111122' 
DISL,ioos:station:DISL:PPTA:1,2017-08-02T10:30:00Z,30.2791,-87.5561,0.0,2.39,25.17,-999.0,'1111122,1111122,1111122' 
DISL,ioos:station:DISL:PPTA:1,2017-08-02T11:00:00Z,30.2791,-87.5561,0.0,2.32,2.737,-999.0,'1111122,1111122,1111122' 
DISL,ioos:station:DISL:PPTA:1,2017-08-02T11:30:00Z,30.2791,-87.5561,0.0,2.9,10.23,-999.0,'1111122,1111122,1111122' 
DISL,ioos:station:DISL:PPTA:1,2017-08-02T12:00:00Z,30.2791,-87.5561,0.0,3.05,7.376,-999.0,'1111122,1111122,1111122' 
DISL,ioos:station:DISL:PPTA:1,2017-08-02T12:30:00Z,30.2791,-87.5561,0.0,2.66,11.9,-999.0,'1111122,1111122,1111122' 
DISL,ioos:station:DISL:PPTA:1,2017-08-02T13:00:00Z,30.2791,-87.5561,0.0,2.25,4.501,-999.0,'1111122,1111122,1111122' 
DISL,ioos:station:DISL:PPTA:1,2017-08-02T13:30:00Z,30.2791,-87.5561,0.0,2.54,23.78,-999.0,'1111122,1111122,1111122' 
DISL,ioos:station:DISL:PPTA:1,2017-08-02T14:00:00Z,30.2791,-87.5561,0.0,2.41,52.2,-999.0,'1111122,1111122,1111122' 
DISL,ioos:station:DISL:PPTA:1,2017-08-02T14:30:00Z,30.2791,-87.5561,0.0,2.81,67.45,-999.0,'1111122,1111122,1111122' 
DISL,ioos:station:DISL:PPTA:1,2017-08-02T15:00:00Z,30.2791,-87.5561,0.0,2.16,75.32,-999.0,'1111122,1111122,1111122' 
DISL,ioos:station:DISL:PPTA:1,2017-08-02T15:30:00Z,30.2791,-87.5561,0.0,2.35,97.6,-999.0,'1111122,1111122,1111122' 
DISL,ioos:station:DISL:PPTA:1,2017-08-02T16:00:00Z,30.2791,-87.5561,0.0,3.11,99.3,-999.0,'1111122,1111122,1111122' 
DISL,ioos:station:DISL:PPTA:1,2017-08-02T16:30:00Z,30.2791,-87.5561,0.0,2.6,109.5,-999.0,'1111122,1111122,1111122' 
DISL,ioos:station:DISL:PPTA:1,2017-08-02T17:00:00Z,30.2791,-87.5561,0.0,3.16,110.0,-999.0,'1111122,1111122,1111122' 
DISL,ioos:station:DISL:PPTA:1,2017-08-02T17:30:00Z,30.2791,-87.5561,0.0,3.43,123.9,-999.0,'1111122,1111122,1111122' 
DISL,ioos:station:DISL:PPTA:1,2017-08-02T18:00:00Z,30.2791,-87.5561,0.0,3.31,131.8,-999.0,'1111122,1111122,1111122' 
DISL,ioos:station:DISL:PPTA:1,2017-08-02T18:30:00Z,30.2791,-87.5561,0.0,4.15,136.2,-999.0,'1111122,1111122,1111122' 
DISL,ioos:station:DISL:PPTA:1,2017-08-02T19:00:00Z,30.2791,-87.5561,0.0,3.37,129.9,-999.0,'1111122,1111122,1111122' 
DISL,ioos:station:DISL:PPTA:1,2017-08-02T19:30:00Z,30.2791,-87.5561,0.0,3.36,137.7,-999.0,'1111122,1111122,1111122' 
DISL,ioos:station:DISL:PPTA:1,2017-08-02T20:00:00Z,30.2791,-87.5561,0.0,3.54,148.9,-999.0,'1111122,1111122,1111122' 
DISL,ioos:station:DISL:PPTA:1,2017-08-02T20:30:00Z,30.2791,-87.5561,0.0,3.74,142.0,-999.0,'1111122,1111122,1111122' 
DISL,ioos:station:DISL:PPTA:1,2017-08-02T21:00:00Z,30.2791,-87.5561,0.0,2.36,148.7,-999.0,'1111122,1111122,1111122' 
DISL,ioos:station:DISL:PPTA:1,2017-08-02T21:30:00Z,30.2791,-87.5561,0.0,2.57,159.3,-999.0,'1111122,1111122,1111122' 
DISL,ioos:station:DISL:PPTA:1,2017-08-02T22:00:00Z,30.2791,-87.5561,0.0,2.88,162.1,-999.0,'1111122,1111122,1111122' 
DISL,ioos:station:DISL:PPTA:1,2017-08-02T22:30:00Z,30.2791,-87.5561,0.0,2.52,172.3,-999.0,'1111122,1111122,1111122' 
DISL,ioos:station:DISL:PPTA:1,2017-08-02T23:00:00Z,30.2791,-87.5561,0.0,2.91,182.3,-999.0,'1111122,1111122,1111122' 
DISL,ioos:station:DISL:PPTA:1,2017-08-02T23:30:00Z,30.2791,-87.5561,0.0,2.69,186.3,-999.0,'1111122,1111122,1111122' 
DISL,ioos:station:DISL:PPTA:1,2017-08-03T00:00:00Z,30.2791,-87.5561,0.0,2.68,188.3,-999.0,'1111122,1111122,1111122' 
DISL,ioos:station:DISL:PPTA:1,2017-08-03T00:30:00Z,30.2791,-87.5561,0.0,1.11,199.5,-999.0,'1111122,1111122,1111122' 
DISL,ioos:station:DISL:PPTA:1,2017-08-03T01:00:00Z,30.2791,-87.5561,0.0,0.82,209.2,-999.0,'1111122,1111122,1111122' 
DISL,ioos:station:DISL:PPTA:1,2017-08-03T01:30:00Z,30.2791,-87.5561,0.0,1.1,252.5,-999.0,'1111122,1111122,1111122' 
DISL,ioos:station:DISL:PPTA:1,2017-08-03T02:00:00Z,30.2791,-87.5561,0.0,1.76,198.2,-999.0,'1111122,1111122,1111122' 
DISL,ioos:station:DISL:PPTA:1,2017-08-03T02:30:00Z,30.2791,-87.5561,0.0,1.66,193.6,-999.0,'1111122,1111122,1111122' 
DISL,ioos:station:DISL:PPTA:1,2017-08-03T03:00:00Z,30.2791,-87.5561,0.0,2.42,188.0,-999.0,'1111122,1111122,1111122' 
DISL,ioos:station:DISL:PPTA:1,2017-08-03T03:30:00Z,30.2791,-87.5561,0.0,1.04,217.1,-999.0,'1111122,1111122,1111122' 
DISL,ioos:station:DISL:PPTA:1,2017-08-03T04:00:00Z,30.2791,-87.5561,0.0,0.44,244.9,-999.0,'1111122,1111122,1111122' 
DISL,ioos:station:DISL:PPTA:1,2017-08-03T04:30:00Z,30.2791,-87.5561,0.0,0.97,320.7,-999.0,'1111122,1111122,1111122' 
DISL,ioos:station:DISL:PPTA:1,2017-08-03T05:00:00Z,30.2791,-87.5561,0.0,1.72,350.8,-999.0,'1111122,1111122,1111122' 
DISL,ioos:station:DISL:PPTA:1,2017-08-03T05:30:00Z,30.2791,-87.5561,0.0,1.34,45.34,-999.0,'1111122,1111122,1111122' 
DISL,ioos:station:DISL:PPTA:1,2017-08-03T06:00:00Z,30.2791,-87.5561,0.0,1.02,36.45,-999.0,'1111122,1111122,1111122' 
DISL,ioos:station:DISL:PPTA:1,2017-08-03T06:30:00Z,30.2791,-87.5561,0.0,1.52,352.4,-999.0,'1111122,1111122,1111122' 
DISL,ioos:station:DISL:PPTA:1,2017-08-03T07:00:00Z,30.2791,-87.5561,0.0,1.69,39.15,-999.0,'1111122,1111122,1111122' 
DISL,ioos:station:DISL:PPTA:1,2017-08-03T07:30:00Z,30.2791,-87.5561,0.0,2.9,18.38,-999.0,'1111122,1111122,1111122' 
DISL,ioos:station:DISL:PPTA:1,2017-08-03T08:00:00Z,30.2791,-87.5561,0.0,1.79,351.8,-999.0,'1111122,1111122,1111122' 
DISL,ioos:station:DISL:PPTA:1,2017-08-03T08:30:00Z,30.2791,-87.5561,0.0,1.35,343.7,-999.0,'1111122,1111122,1111122' 
DISL,ioos:station:DISL:PPTA:1,2017-08-03T09:00:00Z,30.2791,-87.5561,0.0,2.27,2.546,-999.0,'1111122,1111122,1111122' 
DISL,ioos:station:DISL:PPTA:1,2017-08-03T09:30:00Z,30.2791,-87.5561,0.0,2.8,13.1,-999.0,'1111122,1111122,1111122' 
DISL,ioos:station:DISL:PPTA:1,2017-08-03T10:00:00Z,30.2791,-87.5561,0.0,3.99,3.89,-999.0,'1111122,1111122,1111122' 
DISL,ioos:station:DISL:PPTA:1,2017-08-03T10:30:00Z,30.2791,-87.5561,0.0,3.75,14.88,-999.0,'1111122,1111122,1111122' 
DISL,ioos:station:DISL:PPTA:1,2017-08-03T11:00:00Z,30.2791,-87.5561,0.0,3.6,38.33,-999.0,'1111122,1111122,1111122' 
DISL,ioos:station:DISL:PPTA:1,2017-08-03T11:30:00Z,30.2791,-87.5561,0.0,3.26,48.97,-999.0,'1111122,1111122,1111122' 
DISL,ioos:station:DISL:PPTA:1,2017-08-03T12:00:00Z,30.2791,-87.5561,0.0,3.37,39.35,-999.0,'1111122,1111122,1111122' 
DISL,ioos:station:DISL:PPTA:1,2017-08-03T12:30:00Z,30.2791,-87.5561,0.0,3.59,44.49,-999.0,'1111122,1111122,1111122' 
DISL,ioos:station:DISL:PPTA:1,2017-08-03T13:00:00Z,30.2791,-87.5561,0.0,2.94,47.46,-999.0,'1111122,1111122,1111122' 
DISL,ioos:station:DISL:PPTA:1,2017-08-03T13:30:00Z,30.2791,-87.5561,0.0,3.71,79.43,-999.0,'1111122,1111122,1111122' 
DISL,ioos:station:DISL:PPTA:1,2017-08-03T14:00:00Z,30.2791,-87.5561,0.0,2.92,77.08,-999.0,'1111122,1111122,1111122' 
DISL,ioos:station:DISL:PPTA:1,2017-08-03T14:30:00Z,30.2791,-87.5561,0.0,3.06,48.16,-999.0,'1111122,1111122,1111122' 
DISL,ioos:station:DISL:PPTA:1,2017-08-03T15:00:00Z,30.2791,-87.5561,0.0,3.43,43.0,-999.0,'1111122,1111122,1111122' 
DISL,ioos:station:DISL:PPTA:1,2017-08-03T15:30:00Z,30.2791,-87.5561,0.0,3.71,59.19,-999.0,'1111122,1111122,1111122' 
DISL,ioos:station:DISL:PPTA:1,2017-08-03T16:00:00Z,30.2791,-87.5561,0.0,4.03,57.43,-999.0,'1111122,1111122,1111122' 
DISL,ioos:station:DISL:PPTA:1,2017-08-03T16:30:00Z,30.2791,-87.5561,0.0,3.51,52.08,-999.0,'1111122,1111122,1111122' 
DISL,ioos:station:DISL:PPTA:1,2017-08-03T17:00:00Z,30.2791,-87.5561,0.0,3.38,50.08,-999.0,'1111122,1111122,1111122' 
DISL,ioos:station:DISL:PPTA:1,2017-08-03T17:30:00Z,30.2791,-87.5561,0.0,3.91,89.9,-999.0,'1111122,1111122,1111122' 
DISL,ioos:station:DISL:PPTA:1,2017-08-03T18:00:00Z,30.2791,-87.5561,0.0,3.65,76.96,-999.0,'1111122,1111122,1111122' 
DISL,ioos:station:DISL:PPTA:1,2017-08-03T18:30:00Z,30.2791,-87.5561,0.0,3.78,142.4,-999.0,'1111122,1111122,1111122' 
DISL,ioos:station:DISL:PPTA:1,2017-08-03T19:00:00Z,30.2791,-87.5561,0.0,1.71,125.0,-999.0,'1111122,1111122,1111122' 
DISL,ioos:station:DISL:PPTA:1,2017-08-03T19:30:00Z,30.2791,-87.5561,0.0,1.58,186.8,-999.0,'1111122,1111122,1111122' 
DISL,ioos:station:DISL:PPTA:1,2017-08-03T20:00:00Z,30.2791,-87.5561,0.0,1.09,226.8,-999.0,'1111122,1111122,1111122' 
DISL,ioos:station:DISL:PPTA:1,2017-08-03T20:30:00Z,30.2791,-87.5561,0.0,3.19,186.5,-999.0,'1111122,1111122,1111122' 
DISL,ioos:station:DISL:PPTA:1,2017-08-03T21:00:00Z,30.2791,-87.5561,0.0,1.64,195.5,-999.0,'1111122,1111122,1111122' 
DISL,ioos:station:DISL:PPTA:1,2017-08-03T21:30:00Z,30.2791,-87.5561,0.0,1.11,190.9,-999.0,'1111122,1111122,1111122' 
DISL,ioos:station:DISL:PPTA:1,2017-08-03T22:00:00Z,30.2791,-87.5561,0.0,0.86,310.9,-999.0,'1111122,1111122,1111122' 
DISL,ioos:station:DISL:PPTA:1,2017-08-03T22:30:00Z,30.2791,-87.5561,0.0,2.52,22.99,-999.0,'1111122,1111122,1111122' 
DISL,ioos:station:DISL:PPTA:1,2017-08-03T23:00:00Z,30.2791,-87.5561,0.0,0.27,42.67,-999.0,'1111122,1111122,1111122' 
DISL,ioos:station:DISL:PPTA:1,2017-08-03T23:30:00Z,30.2791,-87.5561,0.0,1.72,248.0,-999.0,'1111122,1111122,1111122' 
DISL,ioos:station:DISL:PPTA:1,2017-08-04T00:00:00Z,30.2791,-87.5561,0.0,2.29,250.4,-999.0,'1111122,1111122,1111122' 
DISL,ioos:station:DISL:PPTA:1,2017-08-04T00:30:00Z,30.2791,-87.5561,0.0,1.56,224.0,-999.0,'1111122,1111122,1111122' 
DISL,ioos:station:DISL:PPTA:1,2017-08-04T01:00:00Z,30.2791,-87.5561,0.0,1.68,209.2,-999.0,'1111122,1111122,1111122' 
DISL,ioos:station:DISL:PPTA:1,2017-08-04T01:30:00Z,30.2791,-87.5561,0.0,3.68,187.1,-999.0,'1111122,1111122,1111122' 
DISL,ioos:station:DISL:PPTA:1,2017-08-04T02:00:00Z,30.2791,-87.5561,0.0,3.71,186.5,-999.0,'1111122,1111122,1111122' 
DISL,ioos:station:DISL:PPTA:1,2017-08-04T02:30:00Z,30.2791,-87.5561,0.0,3.2,188.4,-999.0,'1111122,1111122,1111122' 
DISL,ioos:station:DISL:PPTA:1,2017-08-04T03:00:00Z,30.2791,-87.5561,0.0,2.9,189.6,-999.0,'1111122,1111122,1111122' 
DISL,ioos:station:DISL:PPTA:1,2017-08-04T03:30:00Z,30.2791,-87.5561,0.0,1.66,201.3,-999.0,'1111122,1111122,1111122' 
DISL,ioos:station:DISL:PPTA:1,2017-08-04T04:00:00Z,30.2791,-87.5561,0.0,1.6,210.9,-999.0,'1111122,1111122,1111122' 
DISL,ioos:station:DISL:PPTA:1,2017-08-04T04:30:00Z,30.2791,-87.5561,0.0,1.16,239.4,-999.0,'1111122,1111122,1111122' 
DISL,ioos:station:DISL:PPTA:1,2017-08-04T05:00:00Z,30.2791,-87.5561,0.0,1.07,230.5,-999.0,'1111122,1111122,1111122' 
DISL,ioos:station:DISL:PPTA:1,2017-08-04T05:30:00Z,30.2791,-87.5561,0.0,1.32,235.0,-999.0,'1111122,1111122,1111122' 
DISL,ioos:station:DISL:PPTA:1,2017-08-04T06:00:00Z,30.2791,-87.5561,0.0,1.3,235.3,-999.0,'1111122,1111122,1111122' 
DISL,ioos:station:DISL:PPTA:1,2017-08-04T06:30:00Z,30.2791,-87.5561,0.0,1.37,231.7,-999.0,'1111122,1111122,1111122' 
DISL,ioos:station:DISL:PPTA:1,2017-08-04T07:00:00Z,30.2791,-87.5561,0.0,1.53,226.5,-999.0,'1111122,1111122,1111122' 
DISL,ioos:station:DISL:PPTA:1,2017-08-04T07:30:00Z,30.2791,-87.5561,0.0,1.62,238.1,-999.0,'1111122,1111122,1111122' 
DISL,ioos:station:DISL:PPTA:1,2017-08-04T08:00:00Z,30.2791,-87.5561,0.0,1.35,227.7,-999.0,'1111122,1111122,1111122' 
DISL,ioos:station:DISL:PPTA:1,2017-08-04T08:30:00Z,30.2791,-87.5561,0.0,1.32,216.7,-999.0,'1111122,1111122,1111122' 
DISL,ioos:station:DISL:PPTA:1,2017-08-04T09:00:00Z,30.2791,-87.5561,0.0,1.21,222.6,-999.0,'1111122,1111122,1111122' 
DISL,ioos:station:DISL:PPTA:1,2017-08-04T09:30:00Z,30.2791,-87.5561,0.0,3.13,197.6,-999.0,'1111122,1111122,1111122' 
DISL,ioos:station:DISL:PPTA:1,2017-08-04T10:00:00Z,30.2791,-87.5561,0.0,1.76,214.4,-999.0,'1111122,1111122,1111122' 
DISL,ioos:station:DISL:PPTA:1,2017-08-04T10:30:00Z,30.2791,-87.5561,0.0,2.3,201.6,-999.0,'1111122,1111122,1111122' 
DISL,ioos:station:DISL:PPTA:1,2017-08-04T11:00:00Z,30.2791,-87.5561,0.0,1.44,232.1,-999.0,'1111122,1111122,1111122' 
DISL,ioos:station:DISL:PPTA:1,2017-08-04T11:30:00Z,30.2791,-87.5561,0.0,1.72,237.4,-999.0,'1111122,1111122,1111122' 
DISL,ioos:station:DISL:PPTA:1,2017-08-04T12:00:00Z,30.2791,-87.5561,0.0,1.53,231.6,-999.0,'1111122,1111122,1111122' 
DISL,ioos:station:DISL:PPTA:1,2017-08-04T12:30:00Z,30.2791,-87.5561,0.0,2.02,32.07,-999.0,'1111122,1111122,1111122' 
DISL,ioos:station:DISL:PPTA:1,2017-08-04T13:00:00Z,30.2791,-87.5561,0.0,3.24,24.41,-999.0,'1111122,1111122,1111122' 
DISL,ioos:station:DISL:PPTA:1,2017-08-04T13:30:00Z,30.2791,-87.5561,0.0,3.58,52.26,-999.0,'1111122,1111122,1111122' 
DISL,ioos:station:DISL:PPTA:1,2017-08-04T14:00:00Z,30.2791,-87.5561,0.0,3.76,56.26,-999.0,'1111122,1111122,1111122' 
DISL,ioos:station:DISL:PPTA:1,2017-08-04T14:30:00Z,30.2791,-87.5561,0.0,5.38,49.53,-999.0,'1111122,1111122,1111122' 
DISL,ioos:station:DISL:PPTA:1,2017-08-04T15:00:00Z,30.2791,-87.5561,0.0,4.42,43.67,-999.0,'1111122,1111122,1111122' 
DISL,ioos:station:DISL:PPTA:1,2017-08-04T15:30:00Z,30.2791,-87.5561,0.0,4.34,44.45,-999.0,'1111122,1111122,1111122' 
DISL,ioos:station:DISL:PPTA:1,2017-08-04T16:00:00Z,30.2791,-87.5561,0.0,4.54,83.8,-999.0,'1111122,1111122,1111122' 
DISL,ioos:station:DISL:PPTA:1,2017-08-04T16:30:00Z,30.2791,-87.5561,0.0,4.41,77.61,-999.0,'1111122,1111122,1111122' 
DISL,ioos:station:DISL:PPTA:1,2017-08-04T17:00:00Z,30.2791,-87.5561,0.0,3.83,86.4,-999.0,'1111122,1111122,1111122' 
DISL,ioos:station:DISL:PPTA:1,2017-08-04T17:30:00Z,30.2791,-87.5561,0.0,4.43,63.83,-999.0,'1111122,1111122,1111122' 
DISL,ioos:station:DISL:PPTA:1,2017-08-04T18:00:00Z,30.2791,-87.5561,0.0,3.31,93.5,-999.0,'1111122,1111122,1111122' 
DISL,ioos:station:DISL:PPTA:1,2017-08-04T18:30:00Z,30.2791,-87.5561,0.0,1.86,102.3,-999.0,'1111122,1111122,1111122' 
DISL,ioos:station:DISL:PPTA:1,2017-08-04T19:00:00Z,30.2791,-87.5561,0.0,3.11,128.3,-999.0,'1111122,1111122,1111122' 
DISL,ioos:station:DISL:PPTA:1,2017-08-04T19:30:00Z,30.2791,-87.5561,0.0,3.33,138.7,-999.0,'1111122,1111122,1111122' 
DISL,ioos:station:DISL:PPTA:1,2017-08-04T20:00:00Z,30.2791,-87.5561,0.0,3.65,169.9,-999.0,'1111122,1111122,1111122' 
DISL,ioos:station:DISL:PPTA:1,2017-08-04T20:30:00Z,30.2791,-87.5561,0.0,3.23,181.4,-999.0,'1111122,1111122,1111122' 
DISL,ioos:station:DISL:PPTA:1,2017-08-04T21:00:00Z,30.2791,-87.5561,0.0,4.23,191.3,-999.0,'1111122,1111122,1111122' 
DISL,ioos:station:DISL:PPTA:1,2017-08-04T21:30:00Z,30.2791,-87.5561,0.0,5.02,188.8,-999.0,'1111122,1111122,1111122' 
DISL,ioos:station:DISL:PPTA:1,2017-08-04T22:00:00Z,30.2791,-87.5561,0.0,2.81,202.5,-999.0,'1111122,1111122,1111122' 
DISL,ioos:station:DISL:PPTA:1,2017-08-04T22:30:00Z,30.2791,-87.5561,0.0,2.46,227.5,-999.0,'1111122,1111122,1111122' 
DISL,ioos:station:DISL:PPTA:1,2017-08-04T23:00:00Z,30.2791,-87.5561,0.0,3.8,242.3,-999.0,'1111122,1111122,1111122' 
DISL,ioos:station:DISL:PPTA:1,2017-08-04T23:30:00Z,30.2791,-87.5561,0.0,6.73,245.1,-999.0,'1111122,1111122,1111122' 
DISL,ioos:station:DISL:PPTA:1,2017-08-05T00:00:00Z,30.2791,-87.5561,0.0,6.33,246.0,-999.0,'1111122,1111122,1111122' 
DISL,ioos:station:DISL:PPTA:1,2017-08-05T00:30:00Z,30.2791,-87.5561,0.0,5.43,247.7,-999.0,'1111122,1111122,1111122' 
DISL,ioos:station:DISL:PPTA:1,2017-08-05T01:00:00Z,30.2791,-87.5561,0.0,5.62,248.4,-999.0,'1111122,1111122,1111122' 
DISL,ioos:station:DISL:PPTA:1,2017-08-05T01:30:00Z,30.2791,-87.5561,0.0,5.23,245.4,-999.0,'1111122,1111122,1111122' 
DISL,ioos:station:DISL:PPTA:1,2017-08-05T02:00:00Z,30.2791,-87.5561,0.0,4.4,243.5,-999.0,'1111122,1111122,1111122' 
DISL,ioos:station:DISL:PPTA:1,2017-08-05T02:30:00Z,30.2791,-87.5561,0.0,4.83,249.2,-999.0,'1111122,1111122,1111122' 
DISL,ioos:station:DISL:PPTA:1,2017-08-05T03:00:00Z,30.2791,-87.5561,0.0,3.47,245.8,-999.0,'1111122,1111122,1111122' 
DISL,ioos:station:DISL:PPTA:1,2017-08-05T03:30:00Z,30.2791,-87.5561,0.0,2.52,255.8,-999.0,'1111122,1111122,1111122' 
DISL,ioos:station:DISL:PPTA:1,2017-08-05T04:00:00Z,30.2791,-87.5561,0.0,2.16,252.6,-999.0,'1111122,1111122,1111122' 
DISL,ioos:station:DISL:PPTA:1,2017-08-05T04:30:00Z,30.2791,-87.5561,0.0,1.46,254.1,-999.0,'1111122,1111122,1111122' 
DISL,ioos:station:DISL:PPTA:1,2017-08-05T05:00:00Z,30.2791,-87.5561,0.0,2.12,254.4,-999.0,'1111122,1111122,1111122' 
DISL,ioos:station:DISL:PPTA:1,2017-08-05T05:30:00Z,30.2791,-87.5561,0.0,3.95,251.8,-999.0,'1111122,1111122,1111122' 